{"data":{"norad_id":66493,"epoch":"2026-09-20T12:39:59.512032Z","epoch_age_seconds":86907,"freshness":"FRESH","line1":"1 66493U 25263J   26263.52777213  .00009045  00000+0  33770-3 0  9999","line2":"2 66493  43.0026 330.6339 0001270 268.4784  91.5922 15.27589312 48699","mean_motion":15.27589312,"eccentricity":0.000127,"inclination_deg":43.0026,"raan_deg":330.6339,"arg_perigee_deg":268.4784,"mean_anomaly_deg":91.5922,"bstar":0.0003377,"rev_number":4869,"period_min":94.266174074934,"perigee_km":482.14984561031,"apogee_km":483.89257979634,"semimajor_km":6861.1582127033,"source":"CELESTRAK","updated_at":"2026-09-21T09:00:35.920667Z"}}